COSMOS 2425 [GLONASS-M] 
1 29670U 06062A   19265.43442922  .00000075  00000-0  10000-3 0  9997
2 29670  65.0663 276.8979 0021683 336.7815 119.4673  2.13103294 99164
COSMOS 2426 [GLONASS-M] 
1 29671U 06062B   19265.81053336  .00000076  00000-0  10000-3 0  9998
2 29671  65.0758 276.9897 0021188 179.7543  31.1555  2.12961945 99177
COSMOS 2424 [GLONASS-M] 
1 29672U 06062C   19265.26394679  .00000074  00000-0  00000+0 0  9999
2 29672  65.0712 276.9167 0019101 170.6472 189.4337  2.13121092 99156
SL-12 R/B(2)            
1 29673U 06062D   19264.45749962  .00000070  00000-0  00000+0 0  9995
2 29673  65.0703 276.4819 0021576 196.8133 353.6017  2.13404871 99495
SL-12 R/B(AUX MOTOR)    
1 29680U 06062G   19264.27075722  .00000052  00000-0  48611-4 0  9994
2 29680  64.8665 189.4806 5786569 337.7186   4.9376  4.25731036197152
SL-12 R/B(AUX MOTOR)    
1 29682U 06062H   19262.88241022  .00002355  00000-0  50892-3 0  9990
2 29682  64.4576 190.6452 5862640 358.7540   0.2520  4.24071076196940
SL-12 DEB               
1 41768U 06062J   19263.86518094  .00024555  00000-0  41493-2 0  9996
2 41768  64.1384 180.7905 5825260 359.0732   0.2119  4.31178471 46303
SL-12 DEB               
1 41805U 06062K   19264.19455545  .00000154  00000-0  18891-3 0  9992
2 41805  65.3612 194.2295 5755295 323.4895   8.4566  4.26688750 46697
SL-12 DEB               
1 41806U 06062L   19263.95865589  .00000603  00000-0  34860-3 0  9992
2 41806  63.9574 205.2472 5890053   5.8556 358.7353  4.12767248 47293
SL-12 DEB               
1 41807U 06062M   19265.94000934  .00004814  00000-0  11969-2 0  9991
2 41807  64.5671 169.4209 5753432 345.5568   3.2445  4.40017053 49541